Regional Weather Roundup
Issued by NWS

Home | Current Version | Previous Version | Graphics & Text | Print | Product List | Glossary On
Versions: 1 2 3 4 5 6 7 8 9 10 11 12 13 14 15 16 17 18 19 20 21 22 23 24 25 26 27
000
ASUS45 KTFX 170910
RWRMT
MONTANA REGIONAL WEATHER ROUNDUP
NATIONAL WEATHER SERVICE GREAT FALLS MT
300 AM MDT THU AUG 17 2017

NOTE: "FAIR" INDICATES FEW OR NO CLOUDS BELOW 12000 FEET WITH NO
SIGNIFICANT WEATHER AND/OR OBSTRUCTIONS TO VISIBILITY.

MTZ001>007-043-171000-
WEST OF THE DIVIDE

CITY           SKY/WX    TMP DP  RH WIND       PRES   REMARKS
KALISPELL      PTCLDY    49  41  74 CALM      29.97R
MISSOULA       CLEAR     55  40  56 CALM      30.03R
BUTTE          CLEAR     50  32  50 SE3       30.13R
MULLAN PASS    CLEAR     54  33  45 CALM      30.15R
DEER LODGE       N/A     54  37  54 CALM      30.10R
EUREKA           N/A     63  39  42 MISG      29.95R
HAMILTON         N/A     57  39  51 SW3       30.05R
LIBBY            N/A     55  39  54 CALM      29.96R
RONAN            N/A     53  43  69 CALM      30.04S
$$

MTZ008-052>055-171000-
SOUTHWEST MONTANA

CITY           SKY/WX    TMP DP  RH WIND       PRES   REMARKS
BOZEMAN        CLOUDY    59  44  57 S6        30.04S
DILLON         CLOUDY    56  35  45 SE7       30.08S
W YELLOWSTONE  CLOUDY    50  41  71 CALM      30.17S
ENNIS          CLOUDY    55  45  67 CALM      30.13S
THREE FORKS      N/A     56  41  57 CALM      30.03R
$$

MTZ009-010-012-014-046-048-049-054-171000-
EAST SLOPES AND CENTRAL MONTANA

CITY           SKY/WX    TMP DP  RH WIND       PRES   REMARKS
CUT BANK       MOCLDY    63  36  36 W10       29.94S
GREAT FALLS    PTCLDY    59  29  31 SW13      29.96R
MALMSTROM AFB  PTCLDY    60  30  32 W9        29.95R
HELENA         CLOUDY    71  35  26 S8        30.02R
AUGUSTA        MOCLDY    58  31  35 W6        30.00R
BOWMANS CRNR     N/A     59  29  31 S8        29.99S
CHOTEAU          N/A     57  36  44 SW7       29.98S
FAIRFIELD        N/A     57  34  41 CALM      29.96S
POWER            N/A     54  32  42 W7        29.95S
RAYNESFORD     MOCLDY    53  30  40 CALM      29.98S
ULM              N/A     54  30  40 SE5       29.97R
$$

MTZ011-013-016-021-045-047-050-051-171000-
NORTH CENTRAL MONTANA

CITY           SKY/WX    TMP DP  RH WIND       PRES   REMARKS
HAVRE          PTCLDY    55  35  47 W6        29.87R
LEWISTOWN      CLEAR     51  30  44 SE7       29.98S
N BAR RANCH    MOCLDY    54  28  37 W5        30.01S
CHINOOK          N/A     54  45  71 CALM      29.86S
DENTON           N/A     53  29  40 S8        29.91S
GEYSER         MOCLDY    61  28  28 SW13      29.97R
GRASS RANGE      N/A     58  28  32 W5        29.92S
JUDITH GAP       N/A     60  28  29 SW6       30.00S
WINIFRED       MOCLDY    61  28  28 SW5       29.93S
$$

MTZ017>020-022>027-061-062-171000-
NORTHEAST MONTANA

CITY           SKY/WX    TMP DP  RH WIND       PRES   REMARKS
GLASGOW        CLEAR     56  43  61 N6        29.83R
JORDAN           N/A     55  34  45 W7        29.86R
SIDNEY         PTCLDY    60  52  74 S7        29.82F
WOLF POINT     CLOUDY    55  46  71 CALM      29.81S
MALTA          PTCLDY    52  43  71 SW3       29.84S
PLENTYWOOD       N/A     68  54  60 SE12      29.83R
POPLAR           N/A     59  52  77 W3        29.81S
$$

MTZ028>42-056>058-171000-
SOUTHCENTRAL AND SOUTHEAST MONTANA

CITY           SKY/WX    TMP DP  RH WIND       PRES   REMARKS
BAKER          CLEAR     56  47  71 E9        29.89S
BILLINGS       CLOUDY    67  39  35 SW3       29.93S
LIVINGSTON     PTCLDY    56  41  57 W3        30.03S
MILES CITY     CLEAR     63  39  41 SW5       29.84S
BIG TIMBER     CLOUDY    61  34  36 W10       30.04R
FORSYTH          N/A     64  34  32 W3        29.86R
HARLOWTON      MOCLDY    58  30  34 MISG      30.00S
LAUREL           N/A     60  41  49 S1        29.94R
$$

REGIONAL REPORTS...DAKOTAS

CITY           SKY/WX    TMP DP  RH WIND       PRES   REMARKS
WILLISTON      CLOUDY    64  54  69 NE7       29.85S
MINOT          PTCLDY    62  52  69 S7        29.87F
DICKINSON      CLEAR     57  53  86 S8        29.88F
BEACH            N/A     59  48  67 S9        29.89S
CROSBY         CLOUDY    63  59  88 N6        29.83F
TIOGA          CLOUDY    63  63 100 SE9       29.89F
WATFORD CITY     N/A     59  54  82 E5        29.85S
BISMARCK       CLOUDY    56  54  93 CALM      29.90F
GRAND FORKS    FOG       60  60 100 N8        29.80S VSB 1/2
FARGO          CLOUDY    63  62  97 N16       29.76S
BUFFALO SD       N/A     58  49  72 SE8       29.85F
RAPID CITY     CLEAR     55  49  80 CALM      29.96F
$$

REGIONAL REPORTS...WYOMING/IDAHO/WASHINGTON

CITY           SKY/WX    TMP DP  RH WIND       PRES   REMARKS
GILLETTE       CLEAR     66  38  35 SW16      29.97F
SHERIDAN       CLOUDY    55  44  66 W3        29.95S
BUFFALO WY     CLOUDY    65  34  31 W7        30.02S
CODY           CLEAR     65  37  35 SW7       30.04S
YELLOWSTONE LA   N/A     43  40  89 CALM      30.26S
IDAHO FALLS    CLEAR     64  40  41 S10       30.06S
SALMON         CLEAR     54  39  57 CALM      30.07R
BOISE          CLEAR     64  43  46 CALM      30.01R
SPOKANE        PTCLDY    64  43  46 SE6       29.95R
$$

REGIONAL REPORTS...ALBERTA

CITY           SKY/WX    TMP DP  RH WIND       PRES   REMARKS
EDMONTON       PTCLDY    54  48  82 W7        29.90S
CALGARY        MOCLDY    57  46  67 N8        30.00R SMOKE
LETHBRIDGE     PTCLDY    61  41  48 W12       29.88R
MEDICINE HAT   MOCLDY    55  48  76 VRB2      29.84S
$$

REGIONAL REPORTS...SASKATCHEWAN

CITY           SKY/WX    TMP DP  RH WIND       PRES   REMARKS
SWIFT CURRENT  MOCLDY    55  45  67 E10       29.86S
REGINA         PTCLDY    64  45  48 NE12      29.86F
SASKATOON      MOCLDY    52  50  93 W7        29.87R
$$




USA.gov is the U.S. government's official web portal to all federal, state and local government web resources and services.